Regional Weather Roundup
Issued by NWS

Home | Current Version | Previous Version | Text Only | Print | Product List | Glossary On
Versions: 1 2 3 4 5 6 7 8 9 10 11 12 13 14 15 16 17 18 19 20 21 22 23 24 25 26 27 28 29 30 31 32 33 34 35 36 37 38 39 40 41 42 43 44 45 46 47 48 49 50
932
ASUS43 KDTX 191101
RWRMI
MICHIGAN HOURLY REGIONAL WEATHER ROUNDUP
NATIONAL WEATHER SERVICE DETROIT/PONTIAC MI
600 AM EST SUN NOV 19 2017

NOTE: "FAIR" INDICATES FEW OR NO CLOUDS BELOW 12,000 FEET WITH NO
SIGNIFICANT WEATHER AND/OR OBSTRUCTION TO VISIBILITY.

MIZ047>049-052>055-059>063-066>070-074>076-081>083-191200-
SOUTHEAST LOWER MICHIGAN

CITY           SKY/WX    TMP DP  RH WIND       PRES   REMARKS
ADRIAN         CLOUDY    36  26  67 N14       29.80R WCI  27
ALMA           MOCLDY    33  30  87 W9        29.76R WCI  26
ANN ARBOR      CLOUDY    35  27  72 W9        29.76R WCI  28
BAD AXE        CLOUDY    33  26  75 NW15G22   29.68R WCI  23
CARO           CLOUDY    34  29  82 W15       29.70R WCI  25
DETROIT CITY   CLOUDY    48  29  47 NW13G24   29.73R
DETROIT        CLOUDY    37  26  64 NW18G29   29.74R WCI  27
FLINT          CLOUDY    34  26  72 NW15      29.75R WCI  24
GROSSE ILE     CLOUDY    37  28  71 NW18G29   29.74R WCI  27
HILLSDALE      DRIZZLE   34  28  80 NW10      29.78R WCI  26
HOWELL         CLOUDY    33  30  88 NW10      29.76R WCI  25

CITY           SKY/WX    TMP DP  RH WIND       PRES   REMARKS
JACKSON        CLOUDY    35  26  69 W7        29.78R WCI  29
LAMBERTVILLE   CLOUDY    38  28  67 NW6       29.78R WCI  34
LANSING        CLOUDY    34  29  82 W10       29.78R WCI  26
LAPEER         CLOUDY    34  30  85 NW10G18   29.71R WCI  26
MASON          CLOUDY    35  28  76 W9        29.77R WCI  28
MONROE         CLOUDY    38  26  61 NW14G23   29.75R WCI  29
MT. CLEMENS    CLOUDY    37  30  78 NW15      29.69R WCI  28
PONTIAC        CLOUDY    34  26  72 W20G33    29.72R WCI  23
PORT HOPE        N/A     35  27  72 NW23G30   29.65R WCI  23
PORT HURON     CLOUDY    36  27  69 NW10G16   29.69R WCI  28
TRI CITIES     PTCLDY    34  28  79 W10       29.74R WCI  26
MIDLAND        CLOUDY    34  28  79 W7        29.73R WCI  28
TROY           CLOUDY    38  30  73 NW15G25   29.74R WCI  29
SAGINAW HB     CLOUDY    34  28  80 W12G20    29.73R WCI  25
$$
MIZ043>046-050>051-056>058-064>065-071>073-077>080-191200-
SOUTHWEST LOWER MICHIGAN

CITY           SKY/WX    TMP DP  RH WIND       PRES   REMARKS
BATTLE CREEK   MIX PCPN  34  31  88 NW8       29.81R WCI  27
BENTON HARBOR  CLOUDY    38  25  59 NW10G23   29.87R WCI  31
BIG RAPIDS     LGT SNOW  31  29  92 NW7       29.77R WCI  25
COLDWATER      LGT SNOW  34  33  94 NW9       29.81R WCI  27
FREMONT        CLOUDY    33  29  87 NW12G18   29.80R WCI  24
HOLLAND        CLOUDY    37  27  67 NW13G21   29.84R WCI  29
GRAND RAPIDS   CLOUDY    35  32  88 W10       29.80R WCI  27
IONIA          FLURRIES  33  31  92 W9        29.79R WCI  26
KALAMAZOO      CLOUDY    35  30  82 NW7       29.82R WCI  29
LUDINGTON      CLOUDY    32  23  68 NW13G18   29.82R WCI  23
MARSHALL       CLOUDY    34  29  85 W6        29.79S WCI  28
MOUNT PLEASANT CLOUDY    34  29  80 W8        29.74R WCI  27
MUSKEGON       FLURRIES  36  24  62 NW15G24   29.83R WCI  27
SOUTH HAVEN    CLOUDY    37  26  62 NW17G24   29.85R WCI  28
$$
MIZ016>042-191200-
NORTHERN LOWER MICHIGAN

CITY           SKY/WX    TMP DP  RH WIND       PRES   REMARKS
ALPENA         MOCLDY    33  24  69 NW12G23   29.67R WCI  24
BEAVER ISLAND  CLOUDY    31  21  65 NW15G24   29.75S WCI  21
BELLAIRE       CLOUDY    32  26  79 NW6       29.75R WCI  26
CADILLAC       FLURRIES  30  26  85 NW14G22   29.73R WCI  19
CHARLEVOIX     CLOUDY    32  22  66 NW18G29   29.77R WCI  21
FRANKFORT      CLOUDY    33  24  69 NW17G24   29.81R WCI  22
GAYLORD        SNOW      27  24  89 NW10G17   29.69R VSB 1/4 WCI  17
GRAYLING       LGT SNOW  31  26  82 NW12G18   29.71R WCI  21
HARBOR SPRINGS LGT SNOW  30  26  88 NW9       29.73R WCI  21
MANISTEE       LGT RAIN  33  24  69 NW14G25   29.81R WCI  23
OSCODA         CLOUDY    33  24  70 NW14G22   29.67R WCI  23
PELLSTON       CLOUDY    31  21  66 NW22G30   29.73R WCI  18
ROGERS CITY    CLOUDY    33  26  76 NW12G21   29.68R WCI  24
TRAVERSE CITY  CLOUDY    32  24  72 NW17      29.77R WCI  21
$$
MIZ007>008-015-191200-
EASTERN UPPER MICHIGAN

CITY           SKY/WX    TMP DP  RH WIND       PRES   REMARKS
KINROSS        FLURRIES  27  22  81 NW20G32   29.69R WCI  13
MACKINAC ISLAN CLOUDY    30  25  82 NW13G20   29.71R WCI  20
NEWBERRY       CLOUDY    26  23  91 NW9G18    29.73R WCI  16
S. S. MARIE    CLOUDY    27  18  69 NW16G25   29.69R WCI  15
MUNISING         N/A     30  24  78 NW20G29   29.79R WCI  17
$$
MIZ004>006-011>014-085-191200-
CENTRAL UPPER MICHIGAN

CITY           SKY/WX    TMP DP  RH WIND       PRES   REMARKS
MANISTIQUE     FLURRIES  26  21  82 W14G20    29.78R WCI  14
ESCANABA       FLURRIES  27  17  66 NW9G17    29.84R WCI  18
MENOMINEE      FLURRIES  28  18  66 NW13      29.87R WCI  17
SAWYER-GWINN   FLURRIES  22  16  75 NW14G21   29.80S WCI  10
$$
MIZ001>003-009>011-084-191200-
WESTERN UPPER MICHIGAN

CITY           SKY/WX    TMP DP  RH WIND       PRES   REMARKS
IRON MOUNTAIN  CLOUDY    22  11  62 NW13G22   29.83R WCI  10
HOUGHTON       LGT SNOW  21  16  81 NW14      29.82S VSB 3/4 WCI   8
COPPER HARBOR    N/A     26  17  68 N22G30    29.83R WCI  12
IRONWOOD       FLURRIES N/A N/A N/A W15       29.91S
$$

ABBREVIATIONS USED IN REMARKS
   TC - TEMPERATURE IN CELSIUS
  WCI - WIND CHILL INDEX
   HX - HEAT INDEX
  VSB - VISIBILITY





USA.gov is the U.S. government's official web portal to all federal, state and local government web resources and services.